Time,TemperatureF,DewpointF,PressureIn,WindDirection,WindDirectionDegrees,WindSpeedMPH,WindSpeedGustMPH,Humidity,HourlyPrecipIn,Conditions,Clouds,dailyrainin,SoftwareType,DateUTC
2013-03-06 00:00:00,63.7,56.9,30.11,South,184,1.7,1.9,79,0.00,,---,0.00,VWS V13.01,2013-03-06 05:00:00,
2013-03-06 00:01:00,63.7,57.0,30.11,SSW,198,1.5,2.1,79,0.00,,---,0.00,VWS V13.01,2013-03-06 05:01:00,
2013-03-06 00:03:00,63.5,56.8,30.11,SSE,159,1.4,2.4,79,0.00,,---,0.00,VWS V13.01,2013-03-06 05:03:00,
2013-03-06 00:08:00,63.4,56.8,30.10,SSE,149,1.0,2.5,79,0.00,,---,0.00,VWS V13.01,2013-03-06 05:08:00,
2013-03-06 00:13:00,63.2,56.8,30.10,SSW,193,1.0,3.0,80,0.00,,---,0.00,VWS V13.01,2013-03-06 05:13:00,
2013-03-06 00:18:00,63.2,56.9,30.10,SE,146,1.4,2.0,80,0.00,,---,0.00,VWS V13.01,2013-03-06 05:18:00,
2013-03-06 00:24:00,63.2,56.9,30.10,SSW,198,0.7,1.2,80,0.00,,---,0.00,VWS V13.01,2013-03-06 05:24:00,
2013-03-06 00:29:00,63.0,56.8,30.10,SSW,211,1.8,2.1,80,0.00,,---,0.00,VWS V13.01,2013-03-06 05:29:00,
2013-03-06 00:34:00,62.8,56.8,30.10,SW,233,2.1,4.0,81,0.00,,---,0.00,VWS V13.01,2013-03-06 05:34:00,
2013-03-06 00:39:00,62.8,56.8,30.11,SW,235,0.9,1.2,81,0.00,,---,0.00,VWS V13.01,2013-03-06 05:39:00,
2013-03-06 00:44:00,62.5,56.6,30.11,WSW,253,0.0,2.1,81,0.00,,---,0.00,VWS V13.01,2013-03-06 05:44:00,
2013-03-06 00:49:00,62.3,56.6,30.11,SSW,195,0.0,0.0,82,0.00,,---,0.00,VWS V13.01,2013-03-06 05:49:00,
2013-03-06 00:54:00,62.4,56.9,30.10,SSW,200,0.8,1.8,82,0.00,,---,0.00,VWS V13.01,2013-03-06 05:54:00,
2013-03-06 00:59:00,62.0,56.6,30.10,SSE,166,0.0,0.0,82,0.00,,---,0.00,VWS V13.01,2013-03-06 05:59:00,
2013-03-06 01:04:00,62.0,56.8,30.10,SSE,166,0.0,0.0,83,0.00,,---,0.00,VWS V13.01,2013-03-06 06:04:00,
2013-03-06 01:09:00,61.8,56.7,30.10,SSW,211,0.0,1.4,83,0.00,,---,0.00,VWS V13.01,2013-03-06 06:09:00,
2013-03-06 01:14:00,61.8,56.8,30.10,South,186,0.0,0.0,84,0.00,,---,0.00,VWS V13.01,2013-03-06 06:14:00,
2013-03-06 01:19:00,61.8,56.9,30.10,SSW,198,0.4,0.4,84,0.00,,---,0.00,VWS V13.01,2013-03-06 06:19:00,
2013-03-06 01:24:00,61.8,57.1,30.10,SW,225,2.9,3.4,84,0.00,,---,0.00,VWS V13.01,2013-03-06 06:24:00,
2013-03-06 01:29:00,61.5,56.9,30.10,WSW,243,1.5,1.5,85,0.00,,---,0.00,VWS V13.01,2013-03-06 06:29:00,
2013-03-06 01:34:00,61.5,56.9,30.10,South,188,0.0,0.0,85,0.00,,---,0.00,VWS V13.01,2013-03-06 06:34:00,
2013-03-06 01:39:00,61.5,57.0,30.10,SSW,200,0.0,0.0,85,0.00,,---,0.00,VWS V13.01,2013-03-06 06:39:00,
2013-03-06 01:44:00,61.4,57.0,30.09,SSW,207,2.4,2.4,86,0.00,,---,0.00,VWS V13.01,2013-03-06 06:44:00,
2013-03-06 01:49:00,61.5,57.0,30.09,SSW,205,3.0,3.0,85,0.00,,---,0.00,VWS V13.01,2013-03-06 06:49:00,
2013-03-06 01:54:00,61.3,56.9,30.09,South,173,0.7,1.2,86,0.00,,---,0.00,VWS V13.01,2013-03-06 06:54:00,
2013-03-06 01:59:00,61.4,57.0,30.08,SE,145,2.2,2.5,86,0.00,,---,0.00,VWS V13.01,2013-03-06 06:59:00,
2013-03-06 02:04:00,61.4,57.2,30.08,SSE,155,2.3,3.2,86,0.00,,---,0.00,VWS V13.01,2013-03-06 07:04:00,
2013-03-06 02:09:00,61.3,57.1,30.08,SE,136,0.0,0.0,86,0.00,,---,0.00,VWS V13.01,2013-03-06 07:09:00,
2013-03-06 02:14:00,61.0,57.0,30.08,SSW,197,1.4,3.1,86,0.00,,---,0.00,VWS V13.01,2013-03-06 07:14:00,
2013-03-06 02:19:00,60.7,56.8,30.08,SSW,197,2.0,3.9,87,0.00,,---,0.00,VWS V13.01,2013-03-06 07:19:00,
2013-03-06 02:25:00,60.9,57.1,30.07,South,186,2.5,2.5,87,0.00,,---,0.00,VWS V13.01,2013-03-06 07:25:00,
2013-03-06 02:30:00,60.7,56.9,30.07,SSW,202,1.1,2.5,87,0.00,,---,0.00,VWS V13.01,2013-03-06 07:30:00,
2013-03-06 02:35:00,60.7,57.0,30.07,SE,139,0.0,0.0,88,0.00,,---,0.00,VWS V13.01,2013-03-06 07:35:00,
2013-03-06 02:40:00,60.5,56.9,30.06,SSE,152,0.0,1.2,88,0.00,,---,0.00,VWS V13.01,2013-03-06 07:40:00,
2013-03-06 02:45:00,60.5,56.9,30.06,South,190,2.9,3.5,88,0.00,,---,0.00,VWS V13.01,2013-03-06 07:45:00,
2013-03-06 02:50:00,60.5,57.1,30.06,SSW,198,1.9,2.0,88,0.00,,---,0.00,VWS V13.01,2013-03-06 07:50:00,
2013-03-06 02:55:00,60.3,57.0,30.06,SSE,166,1.5,2.8,89,0.00,,---,0.00,VWS V13.01,2013-03-06 07:55:00,
2013-03-06 03:00:00,60.1,56.8,30.06,ESE,121,0.0,2.5,89,0.00,,---,0.00,VWS V13.01,2013-03-06 08:00:00,
2013-03-06 03:05:00,60.0,56.9,30.05,SE,132,0.4,3.9,89,0.00,,---,0.00,VWS V13.01,2013-03-06 08:05:00,
2013-03-06 03:10:00,59.8,56.9,30.05,South,188,1.0,2.8,90,0.00,,---,0.00,VWS V13.01,2013-03-06 08:10:00,
2013-03-06 03:15:00,59.8,56.9,30.05,ESE,107,0.0,0.0,90,0.00,,---,0.00,VWS V13.01,2013-03-06 08:15:00,
2013-03-06 03:20:00,59.7,56.9,30.05,SSE,165,2.2,2.2,90,0.00,,---,0.00,VWS V13.01,2013-03-06 08:20:00,
2013-03-06 03:25:00,59.5,56.8,30.05,SSE,155,2.2,4.0,91,0.00,,---,0.00,VWS V13.01,2013-03-06 08:25:00,
2013-03-06 03:30:00,59.4,56.8,30.05,SSW,195,2.2,2.4,91,0.00,,---,0.00,VWS V13.01,2013-03-06 08:30:00,
2013-03-06 03:35:00,59.5,56.8,30.05,SSE,153,1.7,1.7,91,0.00,,---,0.00,VWS V13.01,2013-03-06 08:35:00,
2013-03-06 03:40:00,59.5,56.9,30.05,South,187,1.8,3.0,91,0.00,,---,0.00,VWS V13.01,2013-03-06 08:40:00,
2013-03-06 03:45:00,59.4,56.8,30.05,SSW,201,0.0,0.0,91,0.00,,---,0.00,VWS V13.01,2013-03-06 08:45:00,
2013-03-06 03:50:00,59.4,56.8,30.05,SSW,201,0.0,0.0,91,0.00,,---,0.00,VWS V13.01,2013-03-06 08:50:00,
2013-03-06 03:55:00,59.3,56.7,30.05,SSW,201,0.0,0.0,91,0.00,,---,0.00,VWS V13.01,2013-03-06 08:55:00,
2013-03-06 04:00:00,59.4,56.9,30.05,SSW,201,0.0,0.0,92,0.00,,---,0.00,VWS V13.01,2013-03-06 09:00:00,
2013-03-06 04:05:00,59.3,56.9,30.05,SSW,201,0.0,0.0,92,0.00,,---,0.00,VWS V13.01,2013-03-06 09:05:00,
2013-03-06 04:10:00,59.2,56.8,30.05,SSW,201,0.0,0.0,92,0.00,,---,0.00,VWS V13.01,2013-03-06 09:10:00,
2013-03-06 04:15:00,59.0,56.6,30.05,SSW,201,0.0,0.0,92,0.00,,---,0.00,VWS V13.01,2013-03-06 09:15:00,
2013-03-06 04:20:00,59.0,56.7,30.05,SSW,201,0.0,0.0,92,0.00,,---,0.00,VWS V13.01,2013-03-06 09:20:00,
2013-03-06 04:25:00,59.0,56.8,30.05,SSW,201,0.0,0.0,92,0.00,,---,0.00,VWS V13.01,2013-03-06 09:25:00,
2013-03-06 04:30:00,59.1,56.9,30.05,SSW,201,0.0,0.0,92,0.00,,---,0.00,VWS V13.01,2013-03-06 09:30:00,
2013-03-06 04:35:00,59.0,56.8,30.05,SSW,201,0.0,0.0,92,0.00,,---,0.00,VWS V13.01,2013-03-06 09:35:00,
2013-03-06 04:40:00,58.7,56.5,30.05,SSW,201,0.0,0.0,92,0.00,,---,0.00,VWS V13.01,2013-03-06 09:40:00,
2013-03-06 04:45:00,58.8,56.7,30.06,SSW,201,0.0,0.0,93,0.00,,---,0.00,VWS V13.01,2013-03-06 09:45:00,
2013-03-06 04:50:00,58.8,56.7,30.06,SSW,201,0.0,0.0,93,0.00,,---,0.00,VWS V13.01,2013-03-06 09:50:00,
2013-03-06 04:55:00,58.5,56.5,30.06,SSW,201,0.0,0.0,93,0.00,,---,0.00,VWS V13.01,2013-03-06 09:55:00,
2013-03-06 05:00:00,58.4,56.5,30.06,SSW,201,0.0,0.0,93,0.00,,---,0.00,VWS V13.01,2013-03-06 10:00:00,
2013-03-06 05:05:00,58.3,56.4,30.07,SSW,201,0.0,0.0,93,0.00,,---,0.00,VWS V13.01,2013-03-06 10:05:00,
2013-03-06 05:10:00,58.6,56.7,30.07,SSW,201,0.0,0.0,94,0.00,,---,0.00,VWS V13.01,2013-03-06 10:10:00,
2013-03-06 05:15:00,58.7,56.9,30.07,South,190,0.0,1.2,94,0.00,,---,0.00,VWS V13.01,2013-03-06 10:15:00,
2013-03-06 05:21:00,58.4,56.5,30.07,South,187,0.0,1.6,94,0.00,,---,0.00,VWS V13.01,2013-03-06 10:21:00,
2013-03-06 05:26:00,58.5,56.6,30.08,WSW,245,0.0,2.9,94,0.00,,---,0.00,VWS V13.01,2013-03-06 10:26:00,
2013-03-06 05:31:00,58.3,56.5,30.08,SW,215,0.0,0.0,94,0.00,,---,0.00,VWS V13.01,2013-03-06 10:31:00,
2013-03-06 05:36:00,58.5,56.7,30.08,SSE,162,0.0,0.0,94,0.00,,---,0.00,VWS V13.01,2013-03-06 10:36:00,
2013-03-06 05:41:00,58.8,57.0,30.08,WSW,243,4.2,5.2,94,0.00,,---,0.00,VWS V13.01,2013-03-06 10:41:00,
2013-03-06 05:46:00,58.7,56.9,30.08,SSW,197,0.0,3.7,94,0.00,,---,0.00,VWS V13.01,2013-03-06 10:46:00,
2013-03-06 05:51:00,58.9,57.0,30.08,WSW,257,1.9,3.9,93,0.00,,---,0.00,VWS V13.01,2013-03-06 10:51:00,
2013-03-06 05:56:00,58.9,56.9,30.08,SSW,204,4.1,4.1,93,0.00,,---,0.00,VWS V13.01,2013-03-06 10:56:00,
2013-03-06 06:01:00,58.9,56.8,30.08,SSW,195,1.7,4.4,93,0.00,,---,0.00,VWS V13.01,2013-03-06 11:01:00,
2013-03-06 06:06:00,59.0,56.9,30.09,WSW,239,1.6,3.1,93,0.00,,---,0.00,VWS V13.01,2013-03-06 11:06:00,
2013-03-06 06:11:00,59.0,56.8,30.09,South,183,1.7,2.2,92,0.00,,---,0.00,VWS V13.01,2013-03-06 11:11:00,
2013-03-06 06:16:00,59.0,56.8,30.09,South,174,2.0,2.4,92,0.00,,---,0.00,VWS V13.01,2013-03-06 11:16:00,
2013-03-06 06:22:00,58.9,56.8,30.09,South,190,3.2,4.0,93,0.00,,---,0.00,VWS V13.01,2013-03-06 11:22:00,
2013-03-06 06:27:00,59.0,56.8,30.09,SSE,163,0.0,0.0,92,0.00,,---,0.00,VWS V13.01,2013-03-06 11:27:00,
2013-03-06 06:31:00,58.8,56.6,30.09,SSE,163,0.0,0.0,92,0.00,,---,0.00,VWS V13.01,2013-03-06 11:31:00,
2013-03-06 06:32:00,58.8,56.6,30.09,SSE,163,0.0,0.0,92,0.00,,---,0.00,VWS V13.01,2013-03-06 11:32:00,
2013-03-06 06:33:00,58.9,56.7,30.09,SSE,163,0.0,0.0,92,0.00,,---,0.00,VWS V13.01,2013-03-06 11:33:00,
2013-03-06 06:34:00,59.0,56.8,30.09,SSE,163,0.0,0.0,92,0.00,,---,0.00,VWS V13.01,2013-03-06 11:34:00,
2013-03-06 06:35:00,58.9,56.7,30.09,SSE,163,0.0,0.0,92,0.00,,---,0.00,VWS V13.01,2013-03-06 11:35:00,
2013-03-06 06:36:00,58.8,56.6,30.09,SSE,163,0.0,0.0,92,0.00,,---,0.00,VWS V13.01,2013-03-06 11:36:00,
2013-03-06 06:37:00,58.9,56.7,30.09,SSE,163,0.0,0.0,92,0.00,,---,0.00,VWS V13.01,2013-03-06 11:37:00,
2013-03-06 06:38:00,58.8,56.6,30.08,SSE,163,0.0,0.0,92,0.00,,---,0.00,VWS V13.01,2013-03-06 11:38:00,
2013-03-06 06:39:00,58.8,56.6,30.09,SSE,163,0.0,0.0,92,0.00,,---,0.00,VWS V13.01,2013-03-06 11:39:00,
2013-03-06 06:40:00,58.8,56.6,30.09,SE,145,1.2,2.7,92,0.00,,---,0.00,VWS V13.01,2013-03-06 11:40:00,
2013-03-06 06:41:00,58.7,56.5,30.09,ESE,105,0.0,1.2,92,0.00,,---,0.00,VWS V13.01,2013-03-06 11:41:00,
2013-03-06 06:42:00,58.8,56.7,30.09,SE,134,0.9,3.7,93,0.00,,---,0.00,VWS V13.01,2013-03-06 11:42:00,
2013-03-06 06:43:00,58.7,56.6,30.09,ESE,108,0.0,3.2,93,0.00,,---,0.00,VWS V13.01,2013-03-06 11:43:00,
2013-03-06 06:44:00,58.7,56.6,30.09,ESE,117,1.0,3.2,93,0.00,,---,0.00,VWS V13.01,2013-03-06 11:44:00,
2013-03-06 06:45:00,58.7,56.6,30.09,SSE,149,2.4,3.4,93,0.00,,---,0.00,VWS V13.01,2013-03-06 11:45:00,
2013-03-06 06:46:00,58.7,56.6,30.09,SE,139,2.9,4.4,93,0.00,,---,0.00,VWS V13.01,2013-03-06 11:46:00,
2013-03-06 06:56:00,58.7,56.8,30.09,SSE,153,2.9,3.5,93,0.00,,---,0.00,VWS V13.01,2013-03-06 11:56:00,
2013-03-06 07:01:00,58.8,57.0,30.09,South,180,1.7,3.7,94,0.00,,---,0.00,VWS V13.01,2013-03-06 12:01:00,
2013-03-06 07:06:00,59.0,57.2,30.09,South,169,2.9,4.5,94,0.00,,---,0.00,VWS V13.01,2013-03-06 12:06:00,
2013-03-06 07:11:00,59.3,57.6,30.09,SSW,194,5.2,5.2,94,0.00,,---,0.00,VWS V13.01,2013-03-06 12:11:00,
2013-03-06 07:16:00,59.6,57.8,30.09,SSE,165,3.9,4.2,94,0.00,,---,0.00,VWS V13.01,2013-03-06 12:16:00,
2013-03-06 07:21:00,60.2,58.2,30.10,SW,214,5.2,6.8,93,0.00,,---,0.00,VWS V13.01,2013-03-06 12:21:00,
2013-03-06 07:26:00,60.4,58.2,30.10,SSW,198,5.2,7.4,93,0.00,,---,0.00,VWS V13.01,2013-03-06 12:26:00,
2013-03-06 07:32:00,60.8,58.5,30.10,South,184,3.7,7.3,92,0.00,,---,0.00,VWS V13.01,2013-03-06 12:32:00,
2013-03-06 07:38:00,61.2,58.7,30.10,SSW,211,3.9,8.0,91,0.00,,---,0.00,VWS V13.01,2013-03-06 12:38:00,
2013-03-06 07:39:00,61.1,58.5,30.10,SW,219,4.7,8.1,91,0.00,,---,0.00,VWS V13.01,2013-03-06 12:39:00,
2013-03-06 07:40:00,61.4,58.8,30.10,South,190,4.5,6.6,91,0.00,,---,0.00,VWS V13.01,2013-03-06 12:40:00,
2013-03-06 07:41:00,61.5,58.8,30.10,SSW,200,6.5,7.6,91,0.00,,---,0.00,VWS V13.01,2013-03-06 12:41:00,
2013-03-06 07:42:00,61.5,58.8,30.10,SSE,158,5.1,7.1,91,0.00,,---,0.00,VWS V13.01,2013-03-06 12:42:00,
2013-03-06 07:43:00,61.5,58.7,30.10,South,172,4.8,9.3,90,0.00,,---,0.00,VWS V13.01,2013-03-06 12:43:00,
2013-03-06 07:53:00,62.6,59.3,30.10,SE,132,2.8,8.4,89,0.00,,---,0.00,VWS V13.01,2013-03-06 12:53:00,
2013-03-06 07:58:00,63.1,59.4,30.10,SW,225,6.2,8.5,88,0.00,,---,0.00,VWS V13.01,2013-03-06 12:58:00,
2013-03-06 08:03:00,63.7,59.6,30.10,SSW,194,5.8,7.3,86,0.00,,---,0.00,VWS V13.01,2013-03-06 13:03:00,
2013-03-06 08:08:00,64.1,59.7,30.10,South,186,7.6,9.0,86,0.00,,---,0.00,VWS V13.01,2013-03-06 13:08:00,
2013-03-06 08:13:00,64.6,59.9,30.10,SSE,158,5.2,7.6,85,0.00,,---,0.00,VWS V13.01,2013-03-06 13:13:00,
2013-03-06 08:18:00,65.2,60.2,30.10,SSW,202,8.9,8.9,84,0.00,,---,0.00,VWS V13.01,2013-03-06 13:18:00,
2013-03-06 08:23:00,65.4,60.1,30.10,South,170,7.8,12.3,83,0.00,,---,0.00,VWS V13.01,2013-03-06 13:23:00,
2013-03-06 08:28:00,65.8,60.4,30.10,SW,222,7.4,9.3,83,0.00,,---,0.00,VWS V13.01,2013-03-06 13:28:00,
2013-03-06 08:35:00,65.9,60.0,30.10,SW,214,5.8,14.2,81,0.00,,---,0.00,VWS V13.01,2013-03-06 13:35:00,
2013-03-06 08:40:00,66.3,60.3,30.11,SSW,198,5.8,14.0,81,0.00,,---,0.00,VWS V13.01,2013-03-06 13:40:00,
2013-03-06 08:45:00,66.9,60.9,30.10,SSW,207,3.9,5.7,81,0.00,,---,0.00,VWS V13.01,2013-03-06 13:45:00,
2013-03-06 08:50:00,67.1,60.4,30.10,SSE,167,4.1,9.4,79,0.00,,---,0.00,VWS V13.01,2013-03-06 13:50:00,
2013-03-06 08:55:00,67.4,60.5,30.10,SE,125,8.1,8.1,78,0.00,,---,0.00,VWS V13.01,2013-03-06 13:55:00,
2013-03-06 09:00:00,67.9,59.7,30.10,South,169,7.2,8.8,75,0.00,,---,0.00,VWS V13.01,2013-03-06 14:00:00,
2013-03-06 09:05:00,68.4,59.5,30.10,SSW,200,8.8,9.1,73,0.00,,---,0.00,VWS V13.01,2013-03-06 14:05:00,
2013-03-06 09:10:00,68.7,59.0,30.10,SW,226,10.9,11.2,71,0.00,,---,0.00,VWS V13.01,2013-03-06 14:10:00,
2013-03-06 09:15:00,69.3,59.8,30.10,South,186,5.3,5.3,72,0.00,,---,0.00,VWS V13.01,2013-03-06 14:15:00,
2013-03-06 09:20:00,69.5,59.2,30.10,SSW,200,5.6,7.1,70,0.00,,---,0.00,VWS V13.01,2013-03-06 14:20:00,
2013-03-06 09:25:00,69.5,58.7,30.10,South,190,3.4,9.0,68,0.00,,---,0.00,VWS V13.01,2013-03-06 14:25:00,
2013-03-06 09:30:00,69.5,58.9,30.10,SSW,195,7.1,10.8,69,0.00,,---,0.00,VWS V13.01,2013-03-06 14:30:00,
2013-03-06 09:35:00,70.2,59.7,30.10,SW,235,8.9,12.6,69,0.00,,---,0.00,VWS V13.01,2013-03-06 14:35:00,
2013-03-06 09:40:00,70.8,60.1,30.10,SSE,162,5.3,11.3,69,0.00,,---,0.00,VWS V13.01,2013-03-06 14:40:00,
2013-03-06 09:45:00,70.9,59.7,30.10,SW,226,6.5,11.2,68,0.00,,---,0.00,VWS V13.01,2013-03-06 14:45:00,
2013-03-06 09:50:00,71.4,60.0,30.10,SSE,148,5.8,7.6,67,0.00,,---,0.00,VWS V13.01,2013-03-06 14:50:00,
2013-03-06 09:56:00,71.0,59.4,30.10,SW,222,4.5,10.1,67,0.00,,---,0.00,VWS V13.01,2013-03-06 14:56:00,
2013-03-06 10:01:00,72.1,60.4,30.10,SSE,156,4.8,5.5,67,0.00,,---,0.00,VWS V13.01,2013-03-06 15:01:00,
2013-03-06 10:06:00,72.3,59.3,30.10,SSW,208,5.0,10.6,64,0.00,,---,0.00,VWS V13.01,2013-03-06 15:06:00,
2013-03-06 10:11:00,72.9,59.4,30.10,SW,228,8.1,11.2,62,0.00,,---,0.00,VWS V13.01,2013-03-06 15:11:00,
2013-03-06 10:16:00,73.0,59.4,30.10,SSW,210,5.6,10.4,62,0.00,,---,0.00,VWS V13.01,2013-03-06 15:16:00,
2013-03-06 10:21:00,73.2,59.4,30.09,SSW,195,8.3,12.7,62,0.00,,---,0.00,VWS V13.01,2013-03-06 15:21:00,
2013-03-06 10:26:00,73.8,59.4,30.09,WSW,243,6.4,12.2,61,0.00,,---,0.00,VWS V13.01,2013-03-06 15:26:00,
2013-03-06 10:31:00,73.7,59.6,30.09,South,191,15.0,15.8,61,0.00,,---,0.00,VWS V13.01,2013-03-06 15:31:00,
2013-03-06 10:36:00,74.0,59.7,30.09,SSE,166,4.5,12.6,61,0.00,,---,0.00,VWS V13.01,2013-03-06 15:36:00,
2013-03-06 10:41:00,74.0,59.5,30.09,SW,225,9.4,14.0,60,0.00,,---,0.00,VWS V13.01,2013-03-06 15:41:00,
2013-03-06 10:46:00,73.8,60.1,30.09,SW,224,11.1,11.1,62,0.00,,---,0.00,VWS V13.01,2013-03-06 15:46:00,
2013-03-06 10:51:00,73.7,59.9,30.09,SW,219,5.8,7.4,62,0.00,,---,0.00,VWS V13.01,2013-03-06 15:51:00,
2013-03-06 10:56:00,73.2,59.9,30.09,WSW,249,8.0,11.9,63,0.00,,---,0.00,VWS V13.01,2013-03-06 15:56:00,
2013-03-06 11:01:00,73.0,60.0,30.09,WSW,252,9.9,11.1,64,0.00,,---,0.00,VWS V13.01,2013-03-06 16:01:00,
2013-03-06 11:06:00,73.4,60.5,30.09,WSW,248,8.9,11.1,64,0.00,,---,0.00,VWS V13.01,2013-03-06 16:06:00,
2013-03-06 11:11:00,73.7,60.7,30.09,WSW,238,8.9,8.9,64,0.00,,---,0.00,VWS V13.01,2013-03-06 16:11:00,
2013-03-06 11:16:00,74.1,60.6,30.08,SW,228,9.6,10.5,63,0.00,,---,0.00,VWS V13.01,2013-03-06 16:16:00,
2013-03-06 11:21:00,74.2,60.7,30.08,SSW,194,10.9,15.7,63,0.00,,---,0.00,VWS V13.01,2013-03-06 16:21:00,
2013-03-06 11:26:00,74.9,61.3,30.08,SSW,208,7.3,11.9,63,0.00,,---,0.00,VWS V13.01,2013-03-06 16:26:00,
2013-03-06 11:31:00,75.3,60.9,30.08,South,186,6.2,10.1,61,0.00,,---,0.00,VWS V13.01,2013-03-06 16:31:00,
2013-03-06 11:36:00,75.9,61.3,30.08,South,174,8.0,11.4,60,0.00,,---,0.00,VWS V13.01,2013-03-06 16:36:00,
2013-03-06 11:41:00,75.5,60.9,30.07,South,186,7.3,14.7,60,0.00,,---,0.00,VWS V13.01,2013-03-06 16:41:00,
2013-03-06 11:46:00,75.7,60.8,30.06,SW,222,11.0,16.8,60,0.00,,---,0.00,VWS V13.01,2013-03-06 16:46:00,
2013-03-06 11:51:00,76.0,61.3,30.06,WSW,245,8.1,12.5,60,0.00,,---,0.00,VWS V13.01,2013-03-06 16:51:00,
2013-03-06 11:56:00,76.1,60.8,30.06,SW,224,5.7,7.2,59,0.00,,---,0.00,VWS V13.01,2013-03-06 16:56:00,
2013-03-06 12:01:00,75.9,60.8,30.06,WSW,255,13.8,17.6,60,0.00,,---,0.00,VWS V13.01,2013-03-06 17:01:00,
2013-03-06 12:06:00,75.3,60.6,30.05,SW,224,11.9,13.8,60,0.00,,---,0.00,VWS V13.01,2013-03-06 17:06:00,
2013-03-06 12:11:00,75.3,60.7,30.05,WSW,250,7.8,11.1,60,0.00,,---,0.00,VWS V13.01,2013-03-06 17:11:00,
2013-03-06 12:16:00,75.2,61.0,30.05,WSW,242,8.0,13.2,61,0.00,,---,0.00,VWS V13.01,2013-03-06 17:16:00,
2013-03-06 12:21:00,74.9,60.7,30.05,WSW,249,8.5,16.2,61,0.00,,---,0.00,VWS V13.01,2013-03-06 17:21:00,
2013-03-06 12:26:00,74.4,61.3,30.05,WNW,284,11.9,11.9,64,0.00,,---,0.00,VWS V13.01,2013-03-06 17:26:00,
2013-03-06 12:32:00,73.1,63.1,30.05,WSW,252,7.1,9.9,71,0.00,,---,0.00,VWS V13.01,2013-03-06 17:32:00,
2013-03-06 12:37:00,72.0,64.1,30.05,WSW,239,19.0,19.0,76,0.00,,---,0.00,VWS V13.01,2013-03-06 17:37:00,
2013-03-06 12:42:00,70.0,64.5,30.05,NW,308,14.4,16.8,83,0.00,,---,0.00,VWS V13.01,2013-03-06 17:42:00,
2013-03-06 12:47:00,69.5,64.9,30.05,WNW,291,5.5,10.9,85,0.00,,---,0.00,VWS V13.01,2013-03-06 17:47:00,
2013-03-06 12:52:00,68.9,64.5,30.05,West,278,10.6,14.2,86,0.00,,---,0.00,VWS V13.01,2013-03-06 17:52:00,
2013-03-06 12:57:00,69.3,64.8,30.04,WSW,249,4.7,10.4,86,0.00,,---,0.00,VWS V13.01,2013-03-06 17:57:00,
2013-03-06 13:02:00,69.5,64.6,30.04,WSW,238,5.7,9.5,84,0.00,,---,0.00,VWS V13.01,2013-03-06 18:02:00,
2013-03-06 13:07:00,69.7,64.4,30.04,WSW,252,9.0,12.7,83,0.00,,---,0.00,VWS V13.01,2013-03-06 18:07:00,
2013-03-06 13:12:00,70.1,64.3,30.04,WSW,250,11.6,14.4,82,0.00,,---,0.00,VWS V13.01,2013-03-06 18:12:00,
2013-03-06 13:17:00,70.9,64.5,30.04,WSW,255,8.1,8.1,80,0.00,,---,0.00,VWS V13.01,2013-03-06 18:17:00,
2013-03-06 13:22:00,71.2,64.5,30.03,SW,222,4.9,8.1,80,0.00,,---,0.00,VWS V13.01,2013-03-06 18:22:00,
2013-03-06 13:27:00,71.4,64.2,30.03,WSW,238,7.0,8.8,78,0.00,,---,0.00,VWS V13.01,2013-03-06 18:27:00,
2013-03-06 13:32:00,72.1,64.4,30.02,SW,233,8.1,10.7,77,0.00,,---,0.00,VWS V13.01,2013-03-06 18:32:00,
2013-03-06 13:37:00,72.4,63.9,30.02,SW,232,7.0,13.2,75,0.00,,---,0.00,VWS V13.01,2013-03-06 18:37:00,
2013-03-06 13:42:00,72.9,64.4,30.02,WSW,245,8.1,9.4,75,0.00,,---,0.00,VWS V13.01,2013-03-06 18:42:00,
2013-03-06 13:47:00,73.3,64.1,30.01,West,273,8.7,9.2,73,0.00,,---,0.00,VWS V13.01,2013-03-06 18:47:00,
2013-03-06 13:52:00,74.0,64.0,30.00,West,266,8.6,14.3,71,0.00,,---,0.00,VWS V13.01,2013-03-06 18:52:00,
2013-03-06 13:57:00,74.4,63.7,30.00,SW,222,5.5,9.4,69,0.00,,---,0.00,VWS V13.01,2013-03-06 18:57:00,
2013-03-06 14:02:00,74.4,63.2,30.00,West,262,5.6,10.4,68,0.00,,---,0.00,VWS V13.01,2013-03-06 19:02:00,
2013-03-06 14:07:00,74.1,62.2,30.00,West,276,4.6,9.8,66,0.00,,---,0.00,VWS V13.01,2013-03-06 19:07:00,
2013-03-06 14:12:00,73.9,62.8,30.00,SSW,211,7.9,10.8,68,0.00,,---,0.00,VWS V13.01,2013-03-06 19:12:00,
2013-03-06 14:17:00,73.9,61.9,29.99,SW,214,12.9,13.5,66,0.00,,---,0.00,VWS V13.01,2013-03-06 19:17:00,
2013-03-06 14:22:00,74.4,60.4,29.99,SW,233,10.6,11.0,62,0.00,,---,0.00,VWS V13.01,2013-03-06 19:22:00,
2013-03-06 14:27:00,74.8,60.7,29.98,West,270,5.8,10.3,61,0.00,,---,0.00,VWS V13.01,2013-03-06 19:27:00,
2013-03-06 14:33:00,75.5,60.9,29.98,SW,215,6.0,12.7,60,0.00,,---,0.00,VWS V13.01,2013-03-06 19:33:00,
2013-03-06 14:38:00,76.1,60.3,29.97,West,263,8.1,9.6,58,0.00,,---,0.00,VWS V13.01,2013-03-06 19:38:00,
2013-03-06 14:43:00,76.7,59.2,29.97,West,260,6.2,7.5,55,0.00,,---,0.00,VWS V13.01,2013-03-06 19:43:00,
2013-03-06 14:48:00,77.2,59.7,29.97,South,181,4.9,11.4,55,0.00,,---,0.00,VWS V13.01,2013-03-06 19:48:00,
2013-03-06 14:53:00,77.4,59.3,29.97,WSW,255,9.0,17.7,54,0.00,,---,0.00,VWS V13.01,2013-03-06 19:53:00,
2013-03-06 14:58:00,77.4,59.1,29.97,West,267,9.6,13.1,53,0.00,,---,0.00,VWS V13.01,2013-03-06 19:58:00,
2013-03-06 15:03:00,77.2,58.7,29.97,SSW,208,8.5,12.9,53,0.00,,---,0.00,VWS V13.01,2013-03-06 20:03:00,
2013-03-06 15:08:00,77.4,58.2,29.96,WSW,248,8.8,10.3,52,0.00,,---,0.00,VWS V13.01,2013-03-06 20:08:00,
2013-03-06 15:13:00,77.3,57.7,29.96,SSE,152,8.0,8.0,51,0.00,,---,0.00,VWS V13.01,2013-03-06 20:13:00,
2013-03-06 15:18:00,77.4,58.2,29.96,WSW,256,7.8,9.1,52,0.00,,---,0.00,VWS V13.01,2013-03-06 20:18:00,
2013-03-06 15:23:00,77.9,57.4,29.96,SW,235,7.6,8.5,49,0.00,,---,0.00,VWS V13.01,2013-03-06 20:23:00,
2013-03-06 15:28:00,77.8,55.6,29.95,WSW,248,5.1,12.7,46,0.00,,---,0.00,VWS V13.01,2013-03-06 20:28:00,
2013-03-06 15:33:00,77.8,53.5,29.95,SW,236,10.9,15.2,43,0.00,,---,0.00,VWS V13.01,2013-03-06 20:33:00,
2013-03-06 15:38:00,77.5,53.8,29.95,WNW,291,8.3,9.8,44,0.00,,---,0.00,VWS V13.01,2013-03-06 20:38:00,
2013-03-06 15:43:00,77.9,53.0,29.95,West,267,4.7,10.9,42,0.00,,---,0.00,VWS V13.01,2013-03-06 20:43:00,
2013-03-06 15:48:00,78.0,53.8,29.95,WSW,257,4.9,8.9,43,0.00,,---,0.00,VWS V13.01,2013-03-06 20:48:00,
2013-03-06 15:53:00,77.7,54.9,29.95,SW,218,5.8,10.0,45,0.00,,---,0.00,VWS V13.01,2013-03-06 20:53:00,
2013-03-06 15:58:00,77.1,54.0,29.95,SW,225,12.1,15.3,45,0.00,,---,0.00,VWS V13.01,2013-03-06 20:58:00,
2013-03-06 16:03:00,77.0,53.7,29.95,WSW,239,17.0,17.0,44,0.00,,---,0.00,VWS V13.01,2013-03-06 21:03:00,
2013-03-06 16:08:00,77.0,53.1,29.95,WSW,238,7.0,11.4,44,0.00,,---,0.00,VWS V13.01,2013-03-06 21:08:00,
2013-03-06 16:13:00,76.8,51.7,29.95,SW,233,16.4,18.4,42,0.00,,---,0.00,VWS V13.01,2013-03-06 21:13:00,
2013-03-06 16:19:00,76.9,51.4,29.95,WSW,250,7.1,14.2,41,0.00,,---,0.00,VWS V13.01,2013-03-06 21:19:00,
2013-03-06 16:24:00,77.1,51.0,29.95,WNW,288,9.1,11.4,40,0.00,,---,0.00,VWS V13.01,2013-03-06 21:24:00,
2013-03-06 16:29:00,77.0,50.3,29.95,WSW,253,11.3,15.1,39,0.00,,---,0.00,VWS V13.01,2013-03-06 21:29:00,
2013-03-06 16:34:00,77.0,49.5,29.95,WSW,242,7.1,18.1,38,0.00,,---,0.00,VWS V13.01,2013-03-06 21:34:00,
2013-03-06 16:39:00,76.9,49.6,29.95,West,277,10.7,14.5,38,0.00,,---,0.00,VWS V13.01,2013-03-06 21:39:00,
2013-03-06 16:44:00,76.4,49.2,29.95,SW,214,9.4,17.8,38,0.00,,---,0.00,VWS V13.01,2013-03-06 21:44:00,
2013-03-06 16:49:00,76.8,49.1,29.95,SW,218,3.8,6.0,38,0.00,,---,0.00,VWS V13.01,2013-03-06 21:49:00,
2013-03-06 16:54:00,76.6,48.1,29.95,SSW,197,8.5,13.4,37,0.00,,---,0.00,VWS V13.01,2013-03-06 21:54:00,
2013-03-06 16:59:00,76.7,48.8,29.95,West,278,4.0,4.7,37,0.00,,---,0.00,VWS V13.01,2013-03-06 21:59:00,
2013-03-06 17:04:00,76.4,47.8,29.96,West,271,9.4,14.1,36,0.00,,---,0.00,VWS V13.01,2013-03-06 22:04:00,
2013-03-06 17:09:00,76.5,48.4,29.95,WSW,252,10.6,11.1,37,0.00,,---,0.00,VWS V13.01,2013-03-06 22:09:00,
2013-03-06 17:14:00,76.3,48.0,29.96,WNW,284,7.7,11.3,37,0.00,,---,0.00,VWS V13.01,2013-03-06 22:14:00,
2013-03-06 17:20:00,76.3,48.1,29.96,WSW,245,12.2,13.0,37,0.00,,---,0.00,VWS V13.01,2013-03-06 22:20:00,
2013-03-06 17:25:00,76.1,47.2,29.96,West,274,12.7,15.6,36,0.00,,---,0.00,VWS V13.01,2013-03-06 22:25:00,
2013-03-06 17:30:00,75.7,45.5,29.96,WSW,245,8.9,14.9,34,0.00,,---,0.00,VWS V13.01,2013-03-06 22:30:00,
2013-03-06 17:35:00,75.7,44.2,29.97,WSW,243,8.5,16.5,32,0.00,,---,0.00,VWS V13.01,2013-03-06 22:35:00,
2013-03-06 17:40:00,74.9,43.7,29.97,SW,214,7.6,11.3,33,0.00,,---,0.00,VWS V13.01,2013-03-06 22:40:00,
2013-03-06 17:45:00,74.9,43.7,29.97,WSW,246,2.2,13.8,33,0.00,,---,0.00,VWS V13.01,2013-03-06 22:45:00,
2013-03-06 17:50:00,74.1,43.2,29.97,WSW,245,5.6,11.8,33,0.00,,---,0.00,VWS V13.01,2013-03-06 22:50:00,
2013-03-06 17:55:00,73.7,41.8,29.97,WNW,283,8.9,14.5,32,0.00,,---,0.00,VWS V13.01,2013-03-06 22:55:00,
2013-03-06 18:00:00,73.5,42.3,29.97,West,266,8.1,13.5,33,0.00,,---,0.00,VWS V13.01,2013-03-06 23:00:00,
2013-03-06 18:05:00,73.4,42.6,29.98,NW,319,6.3,10.6,33,0.00,,---,0.00,VWS V13.01,2013-03-06 23:05:00,
2013-03-06 18:10:00,73.1,43.1,29.98,WNW,295,8.3,11.3,34,0.00,,---,0.00,VWS V13.01,2013-03-06 23:10:00,
2013-03-06 18:15:00,72.5,43.3,29.98,West,260,5.7,7.0,35,0.00,,---,0.00,VWS V13.01,2013-03-06 23:15:00,
2013-03-06 18:20:00,72.2,43.2,29.99,SW,219,9.7,9.7,35,0.00,,---,0.00,VWS V13.01,2013-03-06 23:20:00,
2013-03-06 18:25:00,71.5,42.4,29.99,West,270,4.8,6.3,35,0.00,,---,0.00,VWS V13.01,2013-03-06 23:25:00,
2013-03-06 18:30:00,70.9,43.4,29.99,NW,315,7.3,10.6,37,0.00,,---,0.00,VWS V13.01,2013-03-06 23:30:00,
2013-03-06 18:35:00,70.5,43.8,30.00,WNW,300,3.2,6.6,38,0.00,,---,0.00,VWS V13.01,2013-03-06 23:35:00,
2013-03-06 18:40:00,70.0,43.5,30.00,WSW,255,8.9,9.4,38,0.00,,---,0.00,VWS V13.01,2013-03-06 23:40:00,
2013-03-06 18:45:00,69.9,43.8,30.00,West,273,4.2,7.7,39,0.00,,---,0.00,VWS V13.01,2013-03-06 23:45:00,
2013-03-06 18:50:00,69.1,43.6,30.01,WNW,288,10.4,13.7,40,0.00,,---,0.00,VWS V13.01,2013-03-06 23:50:00,
2013-03-06 18:55:00,68.8,43.8,30.01,WNW,297,8.4,11.7,40,0.00,,---,0.00,VWS V13.01,2013-03-06 23:55:00,
2013-03-06 19:01:00,68.1,42.0,30.02,West,278,5.7,13.5,39,0.00,,---,0.00,VWS V13.01,2013-03-07 00:01:00,
2013-03-06 19:06:00,67.8,39.2,30.02,West,262,14.5,14.5,35,0.00,,---,0.00,VWS V13.01,2013-03-07 00:06:00,
2013-03-06 19:11:00,67.2,34.2,30.02,WNW,284,7.5,9.4,29,0.00,,---,0.00,VWS V13.01,2013-03-07 00:11:00,
2013-03-06 19:16:00,67.1,32.6,30.03,West,274,7.3,8.9,28,0.00,,---,0.00,VWS V13.01,2013-03-07 00:16:00,
2013-03-06 19:21:00,66.3,30.3,30.03,West,264,10.8,12.7,26,0.00,,---,0.00,VWS V13.01,2013-03-07 00:21:00,
2013-03-06 19:26:00,66.1,30.1,30.04,WNW,301,7.5,9.2,26,0.00,,---,0.00,VWS V13.01,2013-03-07 00:26:00,
2013-03-06 19:31:00,65.9,29.0,30.04,WSW,250,10.3,10.3,25,0.00,,---,0.00,VWS V13.01,2013-03-07 00:31:00,
2013-03-06 19:36:00,65.5,28.8,30.05,SW,233,7.6,9.7,25,0.00,,---,0.00,VWS V13.01,2013-03-07 00:36:00,
2013-03-06 19:41:00,64.8,28.6,30.05,West,262,3.5,13.0,25,0.00,,---,0.00,VWS V13.01,2013-03-07 00:41:00,
2013-03-06 19:46:00,65.0,29.7,30.05,WNW,290,3.4,12.6,26,0.00,,---,0.00,VWS V13.01,2013-03-07 00:46:00,
2013-03-06 19:51:00,64.6,28.5,30.05,WNW,284,8.6,15.4,26,0.00,,---,0.00,VWS V13.01,2013-03-07 00:51:00,
2013-03-06 19:56:00,64.2,29.4,30.05,NW,307,8.9,12.1,27,0.00,,---,0.00,VWS V13.01,2013-03-07 00:56:00,
2013-03-06 20:01:00,64.3,29.5,30.05,West,281,9.3,11.6,27,0.00,,---,0.00,VWS V13.01,2013-03-07 01:01:00,
2013-03-06 20:06:00,64.0,30.2,30.05,West,274,7.8,10.5,28,0.00,,---,0.00,VWS V13.01,2013-03-07 01:06:00,
2013-03-06 20:11:00,63.7,30.9,30.06,WSW,250,5.8,12.5,29,0.00,,---,0.00,VWS V13.01,2013-03-07 01:11:00,
2013-03-06 20:16:00,63.6,30.7,30.06,SW,224,5.5,8.9,29,0.00,,---,0.00,VWS V13.01,2013-03-07 01:16:00,
2013-03-06 20:21:00,63.2,30.2,30.06,WSW,245,12.2,15.1,29,0.00,,---,0.00,VWS V13.01,2013-03-07 01:21:00,
2013-03-06 20:26:00,62.8,30.0,30.07,WNW,295,5.0,13.0,29,0.00,,---,0.00,VWS V13.01,2013-03-07 01:26:00,
2013-03-06 20:31:00,62.6,29.8,30.07,WNW,292,12.1,15.3,29,0.00,,---,0.00,VWS V13.01,2013-03-07 01:31:00,
2013-03-06 20:36:00,62.6,30.1,30.07,WSW,253,4.5,9.1,29,0.00,,---,0.00,VWS V13.01,2013-03-07 01:36:00,
2013-03-06 20:41:00,62.3,30.2,30.07,NW,321,6.5,14.6,30,0.00,,---,0.00,VWS V13.01,2013-03-07 01:41:00,
2013-03-06 20:46:00,61.8,30.5,30.08,SW,236,12.4,12.4,30,0.00,,---,0.00,VWS V13.01,2013-03-07 01:46:00,
2013-03-06 20:51:00,61.5,31.5,30.08,SW,235,8.5,14.3,32,0.00,,---,0.00,VWS V13.01,2013-03-07 01:51:00,
2013-03-06 20:56:00,60.8,31.6,30.08,WNW,287,6.4,14.7,33,0.00,,---,0.00,VWS V13.01,2013-03-07 01:56:00,
2013-03-06 21:01:00,61.3,33.0,30.08,WSW,257,4.6,7.9,34,0.00,,---,0.00,VWS V13.01,2013-03-07 02:01:00,
2013-03-06 21:06:00,60.9,33.4,30.08,West,278,2.9,11.2,36,0.00,,---,0.00,VWS V13.01,2013-03-07 02:06:00,
2013-03-06 21:11:00,60.4,33.5,30.08,WNW,301,2.9,10.0,36,0.00,,---,0.00,VWS V13.01,2013-03-07 02:11:00,
2013-03-06 21:16:00,60.0,33.3,30.08,West,281,5.7,8.7,36,0.00,,---,0.00,VWS V13.01,2013-03-07 02:16:00,
2013-03-06 21:21:00,60.2,33.2,30.09,WSW,240,5.4,7.3,36,0.00,,---,0.00,VWS V13.01,2013-03-07 02:21:00,
2013-03-06 21:26:00,59.4,32.8,30.09,West,274,6.5,7.8,36,0.00,,---,0.00,VWS V13.01,2013-03-07 02:26:00,
2013-03-06 21:31:00,59.2,33.0,30.10,West,267,7.5,10.5,37,0.00,,---,0.00,VWS V13.01,2013-03-07 02:31:00,
2013-03-06 21:36:00,59.2,33.8,30.10,NW,309,3.7,5.0,38,0.00,,---,0.00,VWS V13.01,2013-03-07 02:36:00,
2013-03-06 21:41:00,58.7,34.2,30.10,WNW,295,4.9,10.4,40,0.00,,---,0.00,VWS V13.01,2013-03-07 02:41:00,
2013-03-06 21:46:00,58.4,34.7,30.10,West,267,9.4,10.2,41,0.00,,---,0.00,VWS V13.01,2013-03-07 02:46:00,
2013-03-06 21:51:00,58.0,35.1,30.11,WNW,301,9.6,13.9,42,0.00,,---,0.00,VWS V13.01,2013-03-07 02:51:00,
2013-03-06 21:56:00,57.8,35.5,30.11,West,273,8.5,9.4,43,0.00,,---,0.00,VWS V13.01,2013-03-07 02:56:00,
2013-03-06 22:01:00,57.2,35.6,30.11,WNW,292,9.3,9.3,44,0.00,,---,0.00,VWS V13.01,2013-03-07 03:01:00,
2013-03-06 22:06:00,57.1,36.3,30.11,WNW,298,9.8,9.8,46,0.00,,---,0.00,VWS V13.01,2013-03-07 03:06:00,
2013-03-06 22:11:00,56.8,36.7,30.11,West,270,6.0,9.6,47,0.00,,---,0.00,VWS V13.01,2013-03-07 03:11:00,
2013-03-06 22:16:00,56.4,37.0,30.12,West,273,8.1,13.9,48,0.00,,---,0.00,VWS V13.01,2013-03-07 03:16:00,
2013-03-06 22:21:00,56.2,37.4,30.12,WSW,238,13.7,13.7,49,0.00,,---,0.00,VWS V13.01,2013-03-07 03:21:00,
2013-03-06 22:26:00,56.3,38.1,30.12,WNW,297,4.3,8.9,50,0.00,,---,0.00,VWS V13.01,2013-03-07 03:26:00,
2013-03-06 22:31:00,55.8,38.4,30.13,WNW,287,6.2,9.4,52,0.00,,---,0.00,VWS V13.01,2013-03-07 03:31:00,
2013-03-06 22:36:00,55.6,39.0,30.13,WNW,283,9.4,11.2,53,0.00,,---,0.00,VWS V13.01,2013-03-07 03:36:00,
2013-03-06 22:41:00,55.2,39.0,30.13,West,278,13.2,15.3,54,0.00,,---,0.00,VWS V13.01,2013-03-07 03:41:00,
2013-03-06 22:46:00,54.9,39.2,30.13,WNW,291,10.3,19.4,55,0.00,,---,0.00,VWS V13.01,2013-03-07 03:46:00,
2013-03-06 22:51:00,54.9,39.6,30.13,WNW,300,7.9,13.4,56,0.00,,---,0.00,VWS V13.01,2013-03-07 03:51:00,
2013-03-06 22:56:00,54.6,39.8,30.13,West,267,12.2,14.3,57,0.00,,---,0.00,VWS V13.01,2013-03-07 03:56:00,
2013-03-06 23:01:00,54.4,40.1,30.13,West,278,6.8,14.9,58,0.00,,---,0.00,VWS V13.01,2013-03-07 04:01:00,
2013-03-06 23:06:00,54.4,40.5,30.13,WNW,291,6.2,10.8,59,0.00,,---,0.00,VWS V13.01,2013-03-07 04:06:00,
2013-03-06 23:11:00,54.4,40.8,30.13,WNW,285,7.6,10.3,60,0.00,,---,0.00,VWS V13.01,2013-03-07 04:11:00,
2013-03-06 23:16:00,54.2,40.9,30.13,WNW,290,7.5,12.8,61,0.00,,---,0.00,VWS V13.01,2013-03-07 04:16:00,
2013-03-06 23:21:00,53.9,41.0,30.13,WNW,295,3.6,11.7,62,0.00,,---,0.00,VWS V13.01,2013-03-07 04:21:00,
2013-03-06 23:26:00,53.5,41.0,30.13,West,263,7.8,14.2,62,0.00,,---,0.00,VWS V13.01,2013-03-07 04:26:00,
2013-03-06 23:31:00,53.5,41.3,30.13,West,280,9.1,14.6,63,0.00,,---,0.00,VWS V13.01,2013-03-07 04:31:00,
2013-03-06 23:36:00,53.5,41.5,30.13,WNW,285,9.3,11.8,64,0.00,,---,0.00,VWS V13.01,2013-03-07 04:36:00,
2013-03-06 23:41:00,53.5,41.8,30.13,West,262,13.6,17.5,64,0.00,,---,0.00,VWS V13.01,2013-03-07 04:41:00,
2013-03-06 23:46:00,53.2,41.8,30.13,WSW,246,10.1,13.5,65,0.00,,---,0.00,VWS V13.01,2013-03-07 04:46:00,
2013-03-06 23:51:00,53.0,41.8,30.13,West,267,10.9,13.0,66,0.00,,---,0.00,VWS V13.01,2013-03-07 04:51:00,
2013-03-06 23:56:00,53.0,42.1,30.13,WSW,257,7.9,14.0,66,0.00,,---,0.00,VWS V13.01,2013-03-07 04:56:00,